This demonstration page uses our WeatherBlox Daily Observations layout. Learn more.

Left ArrowRight Arrow

Hourly Observations for February 18, 2015

Temp ( °F °C ) Dew Point ( °F °C ) Humidity (%) Winds ( mph kmh ) Pressure ( in mb ) Visibility ( mi km ) Precip ( " mm )
12:15 am 00:15 Clear 12 -11 3 -16 67 67 NNW 13 20 30.33 1027 10 16 0.00 0.00
12:35 am 00:35 Clear 16 -9 3 -16 57 57 NNW 16 26 30.30 1026 10 16 0.00 0.00
12:55 am 00:55 Clear 14 -10 3 -16 62 62 N 15 24 30.33 1027 10 16 0.00 0.00
1:15 am 01:15 Clear 12 -11 1 -17 62 62 NNW 15 24 30.36 1028 10 16 0.00 0.00
1:35 am 01:35 Clear 12 -11 1 -17 62 62 NNW 15 24 30.36 1028 10 16 0.00 0.00
1:55 am 01:55 Clear 12 -11 0 -18 57 57 NNW 17 28 30.36 1028 10 16 0.00 0.00
2:15 am 02:15 Clear 12 -11 0 -18 57 57 NNW 16 26 30.36 1028 10 16 0.00 0.00
2:35 am 02:35 Clear 12 -11 0 -18 57 57 NW 17 28 30.36 1028 10 16 0.00 0.00
2:55 am 02:55 Clear 12 -11 0 -18 57 57 NNW 17 28 30.36 1028 10 16 0.00 0.00
3:15 am 03:15 Clear 12 -11 0 -18 57 57 NW 14 22 30.36 1028 10 16 0.00 0.00
3:35 am 03:35 Clear 10 -12 0 -18 61 61 NNW 16 26 30.36 1028 10 16 0.00 0.00
3:55 am 03:55 Clear 10 -12 0 -18 61 61 NNW 16 26 30.36 1028 10 16 0.00 0.00
4:15 am 04:15 Clear 10 -12 0 -18 61 61 NNW 16 26 30.36 1028 10 16 0.00 0.00
4:35 am 04:35 Clear 10 -12 0 -18 61 61 NNW 15 24 30.39 1029 10 16 0.00 0.00
4:55 am 04:55 Clear 10 -12 0 -18 61 61 NNW 14 22 30.39 1029 10 16 0.00 0.00
5:15 am 05:15 Clear 9 -13 0 -18 66 66 NNW 13 20 30.39 1029 10 16 0.00 0.00
5:35 am 05:35 Clear 9 -13 0 -18 66 66 NNW 10 17 30.45 1031 10 16 0.00 0.00
5:55 am 05:55 Clear 9 -13 0 -18 66 66 NNW 10 17 30.45 1031 10 16 0.00 0.00
6:15 am 06:15 Clear 9 -13 0 -18 66 66 NNW 12 19 30.45 1031 10 16 0.00 0.00
6:35 am 06:35 Clear 9 -13 0 -18 66 66 NNW 9 15 30.45 1031 10 16 0.00 0.00
6:55 am 06:55 Clear 9 -13 0 -18 66 66 NW 8 13 30.48 1032 10 16 0.00 0.00
7:15 am 07:15 Clear 9 -13 0 -18 66 66 NW 8 13 30.48 1032 10 16 0.00 0.00
7:35 am 07:35 Sunny 9 -13 0 -18 66 66 NW 8 13 30.48 1032 10 16 0.00 0.00
7:55 am 07:55 Sunny 9 -13 0 -18 66 66 NW 8 13 30.50 1033 10 16 0.00 0.00
8:15 am 08:15 Sunny 9 -13 0 -18 66 66 NW 8 13 30.50 1033 10 16 0.00 0.00
8:35 am 08:35 Sunny 9 -13 0 -18 66 66 NNW 10 17 30.50 1033 10 16 0.00 0.00
8:55 am 08:55 Sunny 10 -12 0 -18 61 61 NNW 13 20 30.48 1032 10 16 0.00 0.00
9:15 am 09:15 Sunny 10 -12 1 -17 67 67 NNW 15 24 30.48 1032 10 16 0.00 0.00
9:35 am 09:35 Sunny 12 -11 1 -17 62 62 NNW 18 30 30.48 1032 10 16 0.00 0.00
9:55 am 09:55 Sunny 12 -11 1 -17 62 62 NNW 20 31 30.48 1032 10 16 0.00 0.00
10:15 am 10:15 Sunny 14 -10 1 -17 57 57 NNW 15 24 30.48 1032 10 16 0.00 0.00
10:35 am 10:35 Sunny 16 -9 1 -17 53 53 N 20 31 30.45 1031 10 16 0.00 0.00
10:55 am 10:55 Sunny 16 -9 1 -17 53 53 N 16 26 30.45 1031 10 16 0.00 0.00
11:15 am 11:15 Sunny 18 -8 1 -17 49 49 NNW 18 30 30.45 1031 10 16 0.00 0.00
11:35 am 11:35 Sunny 18 -8 1 -17 49 49 NNW 15 24 30.45 1031 10 16 0.00 0.00
11:55 am 11:55 Sunny 19 -7 1 -17 45 45 NNW 15 24 30.45 1031 10 16 0.00 0.00
12:15 pm 12:15 Sunny 19 -7 3 -16 49 49 N 15 24 30.45 1031 10 16 0.00 0.00
12:35 pm 12:35 Sunny 21 -6 1 -17 42 42 N 14 22 30.42 1030 10 16 0.00 0.00
12:55 pm 12:55 Sunny 21 -6 3 -16 45 45 N 17 28 30.42 1030 10 16 0.00 0.00
1:15 pm 13:15 Sunny 21 -6 3 -16 45 45 N 14 22 30.42 1030 10 16 0.00 0.00
1:35 pm 13:35 Sunny 21 -6 3 -16 45 45 N 16 26 30.42 1030 10 16 0.00 0.00
1:55 pm 13:55 Sunny 23 -5 5 -15 46 46 N 15 24 30.42 1030 10 16 0.00 0.00
2:15 pm 14:15 Sunny 25 -4 3 -16 39 39 N 18 30 30.42 1030 10 16 0.00 0.00
2:35 pm 14:35 Sunny 25 -4 5 -15 42 42 N 12 19 30.42 1030 10 16 0.00 0.00
2:55 pm 14:55 Sunny 25 -4 7 -14 46 46 N 15 24 30.42 1030 10 16 0.00 0.00
3:15 pm 15:15 Sunny 25 -4 5 -15 42 42 N 14 22 30.42 1030 10 16 0.00 0.00
3:35 pm 15:35 Sunny 25 -4 5 -15 42 42 NNE 16 26 30.42 1030 10 16 0.00 0.00
3:55 pm 15:55 Sunny 25 -4 5 -15 42 42 NNE 10 17 30.42 1030 10 16 0.00 0.00
4:15 pm 16:15 Sunny 23 -5 3 -16 42 42 N 14 22 30.42 1030 10 16 0.00 0.00
4:35 pm 16:35 Sunny 21 -6 3 -16 45 45 N 14 22 30.42 1030 10 16 0.00 0.00
4:55 pm 16:55 Sunny 21 -6 3 -16 45 45 N 9 15 30.42 1030 10 16 0.00 0.00
5:15 pm 17:15 Sunny 19 -7 3 -16 49 49 NE 9 15 30.45 1031 10 16 0.00 0.00
5:35 pm 17:35 Sunny 19 -7 3 -16 49 49 NNE 8 13 30.45 1031 10 16 0.00 0.00
5:55 pm 17:55 Sunny 18 -8 3 -16 53 53 NNE 7 11 30.45 1031 10 16 0.00 0.00
6:15 pm 18:15 Mostly Cloudy 16 -9 3 -16 57 57 NNE 8 13 30.45 1031 10 16 0.00 0.00
6:35 pm 18:35 Cloudy 16 -9 7 -14 67 67 NNE 6 9 30.45 1031 10 16 0.00 0.00
6:55 pm 18:55 Cloudy 18 -8 7 -14 62 62 NNE 5 7 30.45 1031 10 16 0.00 0.00
7:15 pm 19:15 Cloudy 18 -8 5 -15 58 58 NE 6 9 30.45 1031 10 16 0.00 0.00
7:35 pm 19:35 Cloudy 18 -8 5 -15 58 58 NNE 5 7 30.45 1031 10 16 0.00 0.00
7:55 pm 19:55 Cloudy 18 -8 3 -16 53 53 NNE 7 11 30.45 1031 10 16 0.00 0.00
8:15 pm 20:15 Cloudy 18 -8 5 -15 58 58 NE 3 6 30.45 1031 10 16 0.00 0.00
8:35 pm 20:35 Cloudy 18 -8 5 -15 58 58 NE 6 9 30.45 1031 10 16 0.00 0.00
8:55 pm 20:55 Cloudy 18 -8 3 -16 53 53 NE 6 9 30.45 1031 10 16 0.00 0.00
9:15 pm 21:15 Cloudy 18 -8 3 -16 53 53 NNE 6 9 30.45 1031 10 16 0.00 0.00
9:35 pm 21:35 Cloudy 18 -8 3 -16 53 53 NE 6 9 30.45 1031 10 16 0.00 0.00
9:55 pm 21:55 Cloudy 16 -9 3 -16 57 57 NE 7 11 30.45 1031 10 16 0.00 0.00
10:15 pm 22:15 Cloudy 18 -8 3 -16 53 53 Calm 30.45 1031 10 16 0.00 0.00
10:35 pm 22:35 Cloudy 18 -8 1 -17 49 49 Calm 30.45 1031 10 16 0.00 0.00
10:55 pm 22:55 Cloudy 16 -9 3 -16 57 57 Calm 30.45 1031 10 16 0.00 0.00
11:15 pm 23:15 Cloudy 18 -8 3 -16 53 53 E 6 9 30.45 1031 10 16 0.00 0.00
11:35 pm 23:35 Cloudy 18 -8 3 -16 53 53 E 7 11 30.45 1031 10 16 0.00 0.00
11:55 pm 23:55 Cloudy 16 -9 3 -16 57 57 E 5 7 30.45 1031 10 16 0.00 0.00

Powered by AerisWeather